1498438801.17,58977,22.13,73870.8,6.03,5.23,5.29,0,*76
1498438802.39,58978,22.13,73870.0,6.05,5.27,5.33,0,*70
1498438803.59,58979,22.06,73870.0,6.03,5.23,5.23,0,*72
1498438804.79,58980,22.06,73866.3,6.01,5.29,5.29,0,*76
1498438805.97,58981,22.06,73870.0,6.03,5.23,5.29,0,*7F
1498438807.15,58982,22.06,73868.0,6.03,5.29,5.29,0,*76
1498438808.32,58983,22.13,73872.0,6.03,5.29,5.29,0,*77
1498438809.5,58984,22.06,73868.0,6.03,5.29,5.29,0,*70
1498438810.67,58985,22.13,73872.0,6.03,5.29,5.29,0,*71
1498438811.85,58986,22.06,73870.5,6.03,5.29,5.29,0,*72
1498438813.03,58987,22.06,73870.5,6.03,5.29,5.29,0,*73
1498438814.24,58988,22.13,73872.0,6.01,5.29,5.23,0,*74
1498438815.41,58989,22.13,73874.5,6.03,5.29,5.29,0,*7D
1498438816.61,58990,22.06,73872.0,6.01,5.29,5.29,0,*77
1498438817.79,58991,22.13,73872.0,6.03,5.29,5.29,0,*74
1498438818.96,58992,22.06,73868.3,6.03,5.29,5.29,0,*77
1498438820.16,58993,22.06,73870.5,6.01,5.29,5.29,0,*74
1498438821.34,58994,22.06,73870.0,6.03,5.29,5.29,0,*71
1498438822.54,58995,22.06,73868.0,6.01,5.29,5.29,0,*72
1498438823.71,58996,22.06,73870.0,6.03,5.29,5.29,0,*73
1498438824.89,58997,22.06,73866.3,6.03,5.29,5.33,0,*79
1498438826.08,58998,22.06,73864.5,6.03,5.29,5.33,0,*76
1498438827.28,58999,22.13,73870.5,6.01,5.29,5.33,0,*75
1498438828.46,59000,22.06,73870.0,6.03,5.29,5.33,0,*7F
1498438829.66,59001,22.06,73868.5,6.01,5.29,5.33,0,*7C
1498438830.85,59002,22.13,73868.8,6.03,5.33,5.33,0,*76
1498438832.03,59003,22.06,73870.3,6.03,5.33,5.33,0,*77
1498438833.22,59004,22.13,73870.0,6.03,5.33,5.33,0,*70
1498438834.4,59005,22.06,73868.5,6.03,5.29,5.33,0,*7A
1498438835.59,59006,22.13,73870.0,6.03,5.33,5.33,0,*72
1498438836.78,59007,22.06,73866.3,6.03,5.33,5.33,0,*73
1498438837.98,59008,22.06,73866.0,6.01,5.33,5.33,0,*7E
1498438839.17,59009,22.06,73862.0,6.03,5.33,5.33,0,*7D
1498438840.36,59010,22.13,73868.3,6.03,5.23,5.33,0,*74
1498438841.53,59011,22.06,73862.8,6.03,5.29,5.29,0,*74
1498438842.73,59012,22.06,73866.8,6.03,5.23,5.11,0,*76
1498438843.91,59013,22.06,73866.5,6.03,5.29,5.23,0,*7C
1498438845.11,59014,22.06,73864.5,6.03,5.23,5.23,0,*71
1498438846.29,59015,22.06,73866.3,6.03,5.29,5.23,0,*7A
1498438847.49,59016,22.06,73866.8,6.01,5.29,5.29,0,*71
1498438848.67,59017,22.06,73864.3,6.03,5.29,5.29,0,*72
1498438849.85,59018,22.06,73860.5,6.03,5.29,5.29,0,*7D
1498438851.05,59019,22.06,73864.3,6.01,5.29,5.23,0,*74
1498438852.24,59020,22.06,73862.8,6.03,5.23,5.29,0,*7C
1498438853.47,59021,22.06,73864.8,6.05,5.33,5.27,0,*74
1498438854.67,59022,22.06,73862.8,6.03,5.23,5.23,0,*74
1498438855.86,59023,22.06,73864.8,6.03,5.23,5.23,0,*75
1498438857.05,59024,22.06,73862.5,6.03,5.23,5.19,0,*7B
1498438858.25,59025,22.06,73866.3,6.03,5.19,5.19,0,*73
1498438859.46,59026,22.06,73866.8,6.01,5.23,5.11,0,*73
1498438860.68,59027,22.06,73862.8,6.01,5.19,5.19,0,*73
1498438861.87,59028,22.06,73866.0,6.03,5.11,5.19,0,*76
1498438863.08,59029,22.13,73866.8,6.01,5.11,5.11,0,*7D
1498438864.3,59030,22.06,73864.5,6.01,5.19,5.11,0,*7D
1498438865.49,59031,22.06,73862.8,6.03,5.19,5.19,0,*76
1498438866.69,59032,22.06,73864.5,6.03,5.11,5.19,0,*7D
1498438867.9,59033,22.06,73862.5,6.01,5.19,5.11,0,*7E
1498438869.1,59034,22.13,73866.8,6.03,5.19,5.11,0,*7B
1498438870.32,59035,22.06,73864.5,6.01,5.19,5.19,0,*70
1498438871.51,59036,22.06,73866.8,6.03,5.19,5.19,0,*71
1498438872.73,59037,22.06,73864.5,6.01,5.19,5.19,0,*72
1498438873.92,59038,22.06,73866.8,6.03,5.23,5.19,0,*76
1498438875.11,59039,22.13,73868.5,6.03,5.11,5.19,0,*76
1498438876.3,59040,22.06,73864.8,6.03,5.11,5.19,0,*78
1498438877.52,59041,22.06,73866.3,6.01,5.19,5.07,0,*7C
1498438878.73,59042,22.06,73864.3,6.01,5.11,5.11,0,*70
1498438879.93,59043,22.06,73864.3,6.03,5.19,5.11,0,*7B
1498438881.15,59044,22.06,73864.8,6.01,5.19,5.19,0,*76
1498438882.37,59045,22.06,73862.0,6.01,5.19,5.19,0,*77
1498438883.58,59046,22.06,73862.5,6.01,5.19,5.19,0,*74
1498438884.8,59047,22.06,73864.8,6.01,5.19,5.11,0,*7D
1498438886.02,59048,22.06,73866.3,6.01,5.19,5.11,0,*72
1498438887.24,59049,22.06,73860.5,6.01,5.19,5.11,0,*73
1498438888.45,59050,22.06,73862.5,6.01,5.11,5.19,0,*7B
1498438889.67,59051,22.06,73862.5,6.01,5.19,5.11,0,*7A
1498438890.86,59052,22.06,73864.5,6.03,5.19,5.19,0,*73
1498438892.08,59053,22.13,73866.5,6.01,5.19,5.11,0,*78
1498438893.29,59054,22.06,73864.5,6.01,5.11,5.19,0,*7F
1498438894.51,59055,22.13,73866.5,6.01,5.11,5.07,0,*71
1498438895.72,59056,22.13,73866.8,6.01,5.11,5.11,0,*75
1498438896.94,59057,22.06,73864.8,6.01,5.19,5.11,0,*7C
1498438898.16,59058,22.06,73864.3,6.01,5.19,5.11,0,*73
1498438899.38,59059,22.06,73864.8,6.01,5.19,5.19,0,*7A
1498438900.56,59060,22.06,73862.5,5.99,5.15,5.15,0,*72
1498438901.74,59061,22.06,73866.5,5.99,5.15,5.15,0,*73
1498438902.94,59062,22.06,73866.5,5.99,5.19,5.19,0,*70
1498438904.13,59063,22.06,73862.0,5.99,5.19,5.19,0,*71
1498438905.33,59064,22.06,73862.8,5.99,5.19,5.19,0,*76
1498438906.54,59065,22.06,73862.8,6.01,5.29,5.23,0,*7F
1498438907.74,59066,22.06,73860.8,6.01,5.29,5.29,0,*76
1498438908.95,59067,22.06,73864.3,6.01,5.23,5.23,0,*77
1498438910.16,59068,22.06,73864.8,6.01,5.23,5.29,0,*72
1498438911.35,59069,22.06,73860.8,6.03,5.23,5.23,0,*7B
1498438912.56,59070,22.06,73860.8,6.01,5.29,5.19,0,*72
1498438913.78,59071,22.06,73862.3,6.01,5.23,5.19,0,*79
1498438915.0,59072,22.06,73860.5,6.01,5.19,5.23,0,*7A
1498438916.21,59073,22.06,73862.5,6.01,5.19,5.19,0,*72
1498438917.43,59074,22.06,73862.3,6.01,5.23,5.19,0,*7C
1498438918.65,59075,22.06,73860.3,6.01,5.23,5.23,0,*74
1498438919.85,59076,22.06,73862.5,6.01,5.19,5.29,0,*74
1498438921.07,59077,22.06,73862.8,6.01,5.23,5.23,0,*76
1498438922.29,59078,22.06,73862.3,6.01,5.23,5.23,0,*79
1498438923.5,59079,22.06,73860.8,6.01,5.29,5.23,0,*72
1498438924.72,59080,22.06,73862.0,6.01,5.23,5.23,0,*7E
1498438925.93,59081,22.06,73860.0,6.01,5.29,5.23,0,*75
1498438927.14,59082,22.06,73860.5,6.01,5.19,5.19,0,*7C
1498438928.36,59083,22.06,73860.5,6.01,5.19,5.19,0,*7D
1498438929.56,59084,22.06,73862.3,6.03,5.23,5.23,0,*78
1498438930.77,59085,22.06,73862.3,6.01,5.29,5.23,0,*71
1498438931.97,59086,22.06,73862.5,6.01,5.29,5.29,0,*78
1498438933.18,59087,22.06,73864.5,6.01,5.23,5.23,0,*79
1498438934.4,59088,22.06,73862.3,6.01,5.23,5.19,0,*7F
1498438935.61,59089,22.06,73860.5,6.01,5.11,5.19,0,*7F
1498438936.8,59090,22.06,73864.3,6.03,5.11,5.11,0,*7D
1498438938.02,59091,22.06,73866.5,6.01,5.19,5.11,0,*76
1498438939.24,59092,22.06,73864.3,6.01,5.11,5.19,0,*75
1498438940.43,59093,22.06,73866.8,6.03,5.19,5.23,0,*77
1498438941.64,59094,22.06,73862.8,6.01,5.29,5.23,0,*71
1498438942.86,59095,22.06,73866.8,6.01,5.19,5.23,0,*73
1498438944.08,59096,22.06,73866.8,6.01,5.23,5.23,0,*79
1498438945.3,59097,22.06,73864.5,6.01,5.19,5.23,0,*71
1498438946.52,59098,22.06,73862.8,6.01,5.23,5.23,0,*77
1498438947.73,59099,22.06,73864.3,6.01,5.23,5.23,0,*76
1498438948.94,59100,22.06,73864.0,6.01,5.23,5.29,0,*7D
1498438950.14,59101,22.06,73862.8,6.01,5.29,5.29,0,*76
1498438951.35,59102,22.06,73864.0,5.99,5.19,5.27,0,*7A
1498438952.56,59103,22.06,73864.8,6.01,5.23,5.29,0,*7E
1498438953.76,59104,22.06,73862.5,6.01,5.29,5.29,0,*73
1498438954.96,59105,22.06,73866.0,6.01,5.29,5.29,0,*72
1498438956.16,59106,22.06,73866.3,6.01,5.29,5.29,0,*71
1498438957.36,59107,22.06,73868.0,6.01,5.29,5.29,0,*70
1498438958.56,59108,22.06,73868.5,6.01,5.29,5.33,0,*74
1498438959.77,59109,22.06,73866.3,6.01,5.33,5.33,0,*7E
1498438960.98,59110,22.06,73866.8,6.01,5.33,5.33,0,*76
1498438962.19,59111,22.06,73866.0,6.01,5.33,5.33,0,*77
1498438963.4,59112,22.06,73866.5,6.01,5.33,5.33,0,*74
1498438964.61,59113,22.06,73864.3,6.01,5.33,5.33,0,*75
1498438965.82,59114,22.06,73864.3,6.01,5.33,5.33,0,*72
1498438967.03,59115,22.06,73864.3,6.01,5.33,5.33,0,*73
1498438968.22,59116,22.06,73864.3,6.03,5.33,5.33,0,*72
1498438969.4,59117,22.06,73864.0,6.03,5.33,5.33,0,*73
1498438970.58,59118,22.06,73866.5,6.03,5.29,5.33,0,*77
1498438971.78,59119,22.06,73862.5,6.01,5.29,5.29,0,*7F
1498438972.97,59120,22.06,73864.8,6.03,5.29,5.23,0,*7D
1498438974.16,59121,22.06,73862.8,6.03,5.23,5.23,0,*76
1498438975.35,59122,22.06,73862.8,6.03,5.23,5.19,0,*7C
1498438976.57,59123,22.06,73860.8,6.01,5.23,5.23,0,*76
1498438977.77,59124,22.06,73860.3,6.03,5.19,5.19,0,*73
1498438978.96,59125,22.06,73864.3,6.03,5.19,5.11,0,*7A
1498438980.16,59126,22.06,73866.0,6.03,5.19,5.23,0,*78
1498438981.37,59127,22.06,73862.8,6.01,5.23,5.23,0,*72
1498438982.59,59128,22.06,73864.5,6.01,5.19,5.23,0,*74
1498438983.81,59129,22.06,73862.0,6.01,5.19,5.19,0,*7C
1498438985.03,59130,22.06,73864.3,6.01,5.19,5.19,0,*74
1498438986.24,59131,22.06,73864.3,6.01,5.11,5.11,0,*75
1498438987.46,59132,22.06,73862.8,6.01,5.19,5.19,0,*76
1498438988.68,59133,22.06,73864.8,6.01,5.23,5.11,0,*76
1498438989.89,59134,22.06,73864.0,6.01,5.23,5.19,0,*79
1498438991.11,59135,22.06,73864.3,6.01,5.23,5.23,0,*71
1498438992.32,59136,22.06,73866.8,6.01,5.23,5.19,0,*7B
1498438993.51,59137,22.06,73866.8,6.03,5.23,5.29,0,*7B
1498438994.72,59138,22.06,73866.0,6.01,5.23,5.23,0,*7C
1498438995.92,59139,22.06,73860.8,6.01,5.29,5.29,0,*7D
1498438997.14,59140,22.06,73864.8,6.01,5.23,5.23,0,*73
1498438998.37,59141,22.06,73862.5,5.99,5.27,5.27,0,*70
1498438999.54,59142,22.06,73864.3,6.03,5.29,5.29,0,*73
1498439000.72,59143,22.06,73866.0,6.03,5.29,5.29,0,*72
1498439001.92,59144,22.06,73868.0,6.01,5.29,5.29,0,*77
1498439003.12,59145,22.06,73866.3,6.01,5.29,5.29,0,*76
1498439004.32,59146,22.06,73866.0,6.01,5.29,5.29,0,*75
1498439005.52,59147,22.06,73866.0,6.01,5.29,5.29,0,*74
1498439006.73,59148,22.06,73864.3,6.01,5.23,5.23,0,*7B
1498439007.91,59149,22.06,73866.0,6.03,5.29,5.29,0,*78
1498439009.09,59150,22.06,73868.0,6.03,5.29,5.29,0,*70
1498439010.27,59151,22.06,73864.3,6.03,5.29,5.23,0,*7B
1498439011.47,59152,22.06,73866.0,6.01,5.29,5.29,0,*70
1498439012.67,59153,22.06,73866.3,6.01,5.29,5.29,0,*71
1498439013.85,59154,22.06,73866.5,6.03,5.29,5.29,0,*74
1498439015.05,59155,22.06,73868.5,6.01,5.29,5.29,0,*77
1498439016.22,59156,22.06,73868.8,6.03,5.29,5.29,0,*76
1498439017.42,59157,22.06,73870.5,6.01,5.29,5.29,0,*75
1498439018.62,59158,22.06,73868.8,6.01,5.29,5.29,0,*7A
1498439019.82,59159,22.06,73870.5,6.01,5.29,5.33,0,*70
1498439021.03,59160,22.06,73868.0,6.01,5.29,5.33,0,*7A
1498439022.21,59161,22.06,73872.8,6.03,5.29,5.33,0,*79
1498439023.41,59162,22.06,73868.0,6.01,5.29,5.33,0,*78
1498439024.62,59163,22.06,73866.3,6.01,5.37,5.33,0,*76
1498439025.8,59164,22.06,73868.5,6.03,5.33,5.37,0,*73
1498439026.98,59165,22.06,73870.0,6.03,5.33,5.37,0,*72
1498439028.19,59166,22.06,73870.3,6.01,5.33,5.37,0,*73
1498439029.4,59167,22.06,73874.8,6.01,5.37,5.33,0,*72
1498439030.6,59168,22.06,73868.0,6.01,5.37,5.33,0,*7D
1498439031.79,59169,22.06,73868.8,6.03,5.33,5.33,0,*7A
1498439032.99,59170,22.06,73870.5,6.01,5.37,5.37,0,*70
1498439034.18,59171,22.06,73874.0,6.03,5.33,5.33,0,*73
1498439035.37,59172,22.06,73868.8,6.03,5.33,5.33,0,*70
1498439036.58,59173,22.06,73868.8,6.01,5.33,5.33,0,*73
1498439037.76,59174,22.06,73870.8,6.03,5.33,5.33,0,*76
1498439038.97,59175,22.06,73870.5,6.05,5.37,5.41,0,*70
1498439040.15,59176,22.06,73868.5,6.03,5.37,5.33,0,*70
1498439041.33,59177,22.06,73870.8,6.03,5.37,5.33,0,*71
1498439042.52,59178,22.06,73870.5,6.03,5.33,5.33,0,*7A
1498439043.7,59179,22.06,73868.0,6.03,5.33,5.37,0,*7F
1498439044.89,59180,22.06,73868.3,6.03,5.33,5.37,0,*79
1498439046.09,59181,22.06,73870.3,6.01,5.33,5.37,0,*7A
1498439047.28,59182,22.06,73868.3,6.03,5.33,5.33,0,*7F
1498439048.47,59183,22.06,73870.0,6.03,5.33,5.33,0,*7E
1498439049.68,59184,22.06,73868.8,6.01,5.33,5.33,0,*7B
1498439050.86,59185,22.06,73870.5,6.03,5.33,5.37,0,*7C
1498439052.04,59186,22.06,73868.0,6.03,5.37,5.33,0,*7F
1498439053.23,59187,22.06,73868.8,6.03,5.33,5.37,0,*7E
1498439054.41,59188,22.06,73870.0,6.03,5.33,5.33,0,*75
1498439055.62,59189,22.06,73868.5,6.01,5.33,5.33,0,*76
1498439056.81,59190,22.06,73868.8,6.03,5.37,5.33,0,*78
1498439057.99,59191,22.06,73866.8,6.03,5.33,5.37,0,*79
1498439059.17,59192,22.06,73870.8,6.03,5.37,5.37,0,*7E
1498439060.35,59193,22.06,73870.8,6.03,5.33,5.37,0,*7B
1498439061.54,59194,22.06,73868.5,6.03,5.33,5.37,0,*7C
1498439062.72,59195,22.06,73872.8,6.03,5.33,5.37,0,*7D
1498439063.9,59196,22.06,73868.8,6.07,5.45,5.45,0,*7E
1498439065.1,59197,22.06,73874.3,6.05,5.37,5.41,0,*7C
1498439066.3,59198,22.06,73872.3,6.05,5.41,5.41,0,*72
1498439067.51,59199,22.06,73874.0,6.05,5.41,5.41,0,*73
1498439068.69,59200,22.06,73874.8,6.03,5.37,5.37,0,*76
1498439069.88,59201,22.06,73874.5,6.03,5.33,5.33,0,*77
1498439071.06,59202,22.06,73868.3,6.03,5.37,5.37,0,*74
1498439072.26,59203,22.06,73870.3,6.05,5.41,5.37,0,*72
1498439073.47,59204,22.06,73868.8,6.05,5.41,5.41,0,*74
1498439074.67,59205,22.06,73870.5,6.05,5.41,5.41,0,*75
1498439075.87,59206,22.06,73868.5,6.05,5.37,5.41,0,*77
1498439077.08,59207,22.06,73866.8,6.05,5.41,5.41,0,*77
1498439078.28,59208,22.06,73870.3,6.05,5.41,5.41,0,*78
1498439079.49,59209,22.06,73864.8,6.05,5.41,5.41,0,*79
1498439080.69,59210,22.06,73868.5,6.05,5.37,5.37,0,*71
1498439081.89,59211,22.06,73868.3,6.05,5.37,5.37,0,*70
1498439083.08,59212,22.06,73870.0,6.07,5.41,5.41,0,*71
1498439084.29,59213,22.06,73866.3,6.05,5.37,5.33,0,*76
1498439085.49,59214,22.06,73868.0,6.05,5.37,5.33,0,*71
1498439086.7,59215,22.06,73866.5,6.05,5.37,5.33,0,*70
1498439087.9,59216,22.06,73870.3,6.05,5.37,5.33,0,*73
1498439089.09,59217,22.06,73866.8,6.07,5.41,5.37,0,*75
1498439090.3,59218,22.06,73868.5,6.05,5.37,5.33,0,*7D
1498439091.5,59219,22.06,73864.3,6.05,5.37,5.33,0,*7C
1498439092.71,59220,22.06,73864.3,6.05,5.37,5.33,0,*76
1498439093.92,59221,22.06,73870.5,6.05,5.37,5.33,0,*77
1498439095.12,59222,22.06,73870.5,6.05,5.37,5.33,0,*74
1498439096.33,59223,22.06,73870.5,6.05,5.37,5.33,0,*75
1498439097.53,59224,22.06,73870.0,6.05,5.37,5.37,0,*76
1498439098.74,59225,22.06,73868.5,6.05,5.41,5.37,0,*76
1498439099.94,59226,22.06,73868.3,6.05,5.37,5.37,0,*74
1498439101.14,59227,22.06,73866.3,6.05,5.41,5.41,0,*75
1498439102.35,59228,22.06,73870.3,6.05,5.37,5.37,0,*7A
1498439103.55,59229,22.06,73868.3,6.05,5.37,5.37,0,*7B
1498439104.75,59230,22.06,73872.0,6.05,5.37,5.37,0,*73
1498439105.96,59231,22.06,73870.5,6.05,5.37,5.37,0,*72
1498439107.17,59232,22.06,73870.5,6.05,5.33,5.33,0,*71
1498439108.38,59233,22.06,73868.3,6.05,5.33,5.33,0,*70
1498439109.58,59234,22.06,73870.0,6.05,5.33,5.33,0,*77
1498439110.79,59235,22.06,73870.0,6.05,5.33,5.33,0,*76
1498439112.0,59236,22.06,73868.5,6.05,5.33,5.33,0,*75
1498439113.21,59237,22.06,73866.3,6.05,5.33,5.33,0,*74
1498439114.42,59238,22.06,73864.8,6.05,5.33,5.33,0,*7B
1498439115.63,59239,22.06,73866.0,6.05,5.33,5.33,0,*7A
1498439116.84,59240,22.06,73870.3,6.05,5.33,5.33,0,*74
1498439118.02,59241,22.06,73864.5,6.03,5.29,5.29,0,*73
1498439119.2,59242,22.06,73866.0,6.03,5.29,5.33,0,*7B
1498439120.38,59243,22.06,73866.8,6.03,5.29,5.33,0,*7A
1498439121.58,59244,22.06,73866.8,6.05,5.33,5.37,0,*74
1498439122.79,59245,22.06,73868.5,6.05,5.33,5.37,0,*75
1498439123.97,59246,22.06,73866.5,6.07,5.37,5.41,0,*71
1498439125.18,59247,22.06,73868.3,6.05,5.33,5.37,0,*77
1498439126.38,59248,22.06,73868.5,6.05,5.33,5.37,0,*78
1498439127.59,59249,22.06,73868.3,6.05,5.33,5.37,0,*79
1498439128.79,59250,22.06,73870.8,6.05,5.37,5.41,0,*74
1498439130.0,59251,22.06,73870.8,6.05,5.37,5.37,0,*74
1498439131.2,59252,22.06,73868.5,6.05,5.37,5.37,0,*77
1498439132.4,59253,22.06,73874.3,6.05,5.41,5.37,0,*77
1498439133.61,59254,22.06,73872.8,6.05,5.41,5.41,0,*71
1498439134.81,59255,22.06,73868.5,6.05,5.37,5.37,0,*70
1498439135.99,59256,22.06,73870.8,6.07,5.45,5.41,0,*75
1498439137.17,59257,22.06,73870.5,6.07,5.41,5.41,0,*70
1498439138.38,59258,22.06,73870.5,6.05,5.37,5.37,0,*7D
1498439139.58,59259,22.06,73866.8,6.05,5.37,5.37,0,*7C
1498439140.76,59260,22.06,73870.5,6.07,5.45,5.41,0,*70
1498439141.96,59261,22.06,73868.3,6.05,5.37,5.41,0,*76
1498439143.17,59262,22.06,73868.8,6.05,5.41,5.41,0,*74
1498439144.35,59263,22.06,73868.0,6.07,5.45,5.41,0,*73
1498439145.55,59264,22.06,73870.3,6.05,5.37,5.37,0,*72
1498439146.75,59265,22.06,73868.5,6.05,5.41,5.37,0,*72
1498439147.96,59266,22.06,73870.8,6.05,5.41,5.41,0,*70
1498439149.16,59267,22.06,73868.8,6.05,5.41,5.37,0,*70
1498439150.37,59268,22.06,73870.3,6.05,5.37,5.37,0,*7E
1498439151.57,59269,22.06,73870.5,6.05,5.37,5.41,0,*7E
1498439152.77,59270,22.06,73868.5,6.05,5.37,5.41,0,*76
1498439153.97,59271,22.06,73868.0,6.05,5.37,5.37,0,*76
1498439155.16,59272,22.06,73866.5,6.07,5.41,5.45,0,*73
1498439156.34,59273,22.06,73870.3,6.07,5.41,5.45,0,*72
1498439157.53,59274,22.06,73868.5,6.07,5.41,5.45,0,*75
1498439158.71,59275,22.06,73864.3,6.07,5.41,5.45,0,*74
1498439159.91,59276,22.06,73868.3,6.05,5.37,5.37,0,*71
1498439161.12,59277,22.06,73868.3,6.05,5.37,5.41,0,*71
1498439162.3,59278,22.06,73868.3,6.07,5.37,5.41,0,*7C
1498439163.48,59279,22.06,73868.5,6.07,5.41,5.41,0,*7C
1498439164.66,59280,22.06,73868.5,6.07,5.41,5.41,0,*7A
1498439165.85,59281,22.06,73868.0,6.07,5.37,5.41,0,*7A
1498439167.05,59282,22.06,73862.0,6.05,5.33,5.41,0,*7F
1498439168.26,59283,22.06,73866.0,6.05,5.37,5.37,0,*7B
1498439169.46,59284,22.06,73862.8,6.05,5.37,5.37,0,*7C
1498439170.64,59285,22.06,73864.8,6.07,5.41,5.41,0,*7F
1498439171.85,59286,22.06,73864.3,6.05,5.37,5.37,0,*7E
1498439173.03,59287,22.06,73864.0,6.07,5.37,5.41,0,*7C
1498439174.21,59288,22.06,73866.5,6.07,5.37,5.41,0,*73
1498439175.42,59289,22.06,73866.8,6.05,5.33,5.33,0,*71
1498439176.63,59290,22.06,73868.5,6.05,5.33,5.33,0,*79
1498439177.86,59291,22.06,73868.8,6.05,5.27,5.33,0,*7D
1498439179.09,59292,22.06,73870.5,6.05,5.33,5.27,0,*7E
1498439180.3,59293,22.06,73870.5,6.05,5.33,5.33,0,*7A
1498439181.51,59294,22.06,73868.3,6.05,5.33,5.33,0,*7D
1498439182.69,59295,22.06,73866.0,6.07,5.37,5.37,0,*7E
1498439183.87,59296,22.06,73872.5,6.07,5.37,5.29,0,*72
1498439185.12,59297,22.06,73870.0,6.05,5.27,5.27,0,*7E
1498439186.33,59298,22.06,73870.3,6.07,5.37,5.27,0,*72
1498439187.56,59299,22.06,73870.8,6.05,5.27,5.23,0,*74
1498439188.77,59300,22.06,73868.3,6.07,5.27,5.19,0,*7E
1498439189.99,59301,22.06,73868.8,6.07,5.27,5.19,0,*7F
1498439191.2,59302,22.06,73866.5,6.05,5.23,5.19,0,*7A
1498439192.42,59303,22.06,73866.8,6.05,5.23,5.23,0,*72
1498439193.63,59304,22.06,73866.8,6.07,5.27,5.19,0,*7A
1498439194.83,59305,22.06,73866.5,6.05,5.15,5.15,0,*74
1498439196.06,59306,22.06,73868.0,6.07,5.27,5.27,0,*75
1498439197.28,59307,22.06,73864.0,6.05,5.23,5.15,0,*73
1498439198.47,59308,22.06,73866.5,6.03,5.19,5.11,0,*77
1498439199.66,59309,22.06,73864.3,6.03,5.19,5.19,0,*7E
1498439200.91,59310,22.06,73866.3,6.05,5.27,5.27,0,*70
1498439202.16,59311,22.06,73868.5,6.05,5.27,5.27,0,*71
1498439203.41,59312,22.06,73870.5,6.05,5.27,5.27,0,*72
1498439204.66,59313,22.06,73870.8,6.05,5.27,5.27,0,*73
1498439205.91,59314,22.06,73874.3,6.05,5.27,5.27,0,*74
1498439207.16,59315,22.06,73874.3,6.05,5.27,5.27,0,*75
1498439208.39,59316,22.06,73872.3,6.05,5.27,5.33,0,*73
1498439209.62,59317,22.06,73874.0,6.05,5.33,5.27,0,*72
1498439210.87,59318,22.06,73874.8,6.05,5.27,5.27,0,*78
1498439212.12,59319,22.06,73870.0,6.05,5.27,5.27,0,*79
1498439213.35,59320,22.06,73866.8,6.05,5.23,5.27,0,*77
1498439214.58,59321,22.06,73864.5,6.05,5.27,5.33,0,*77
1498439215.83,59322,22.06,73866.3,6.05,5.27,5.27,0,*71
1498439217.03,59323,22.06,73866.5,6.03,5.23,5.23,0,*76
1498439218.25,59324,22.06,73862.8,6.05,5.27,5.33,0,*72
1498439219.46,59325,22.06,73864.8,6.05,5.33,5.33,0,*76
1498439220.65,59326,22.06,73866.0,6.03,5.29,5.23,0,*79
1498439221.83,59327,22.06,73864.8,6.03,5.29,5.23,0,*78
1498439223.08,59328,22.06,73866.5,6.05,5.27,5.27,0,*7B
1498439224.33,59329,22.06,73866.5,6.05,5.27,5.27,0,*7A
1498439225.53,59330,22.06,73862.8,6.03,5.23,5.23,0,*74
1498439226.73,59331,22.06,73862.3,6.03,5.19,5.23,0,*7C
1498439227.92,59332,22.06,73862.8,6.03,5.11,5.11,0,*76
1498439229.11,59333,22.06,73864.0,6.03,5.11,5.11,0,*77
1498439230.3,59334,22.06,73866.8,6.03,5.11,5.11,0,*70
1498439231.49,59335,22.06,73868.5,6.03,5.11,5.19,0,*79
1498439232.68,59336,22.06,73866.5,6.03,5.19,5.19,0,*72
1498439233.88,59337,22.06,73864.8,6.03,5.19,5.19,0,*73
1498439235.07,59338,22.06,73864.8,6.03,5.19,5.19,0,*7C
1498439236.27,59339,22.06,73868.0,6.03,5.19,5.19,0,*7D
1498439237.49,59340,22.06,73866.8,6.01,5.19,5.11,0,*79
1498439238.68,59341,22.06,73864.8,6.03,5.11,5.19,0,*7A
1498439239.89,59342,22.06,73866.3,6.01,5.19,5.11,0,*7B
1498439241.09,59343,22.06,73866.8,6.03,5.19,5.11,0,*78
1498439242.31,59344,22.06,73868.5,6.01,5.19,5.19,0,*75
1498439243.5,59345,22.06,73866.0,6.03,5.19,5.19,0,*76
1498439244.69,59346,22.06,73864.0,6.03,5.11,5.07,0,*72
1498439245.88,59347,22.06,73864.8,6.03,5.11,5.07,0,*73
1498439247.08,59348,22.06,73870.0,6.03,5.11,5.07,0,*7C
1498439248.27,59349,22.06,73868.3,6.03,5.11,5.07,0,*7D
1498439249.48,59350,22.06,73870.5,6.01,5.19,5.11,0,*78
1498439250.7,59351,22.06,73870.0,6.01,5.19,5.19,0,*71
1498439251.92,59352,22.06,73870.5,6.01,5.11,5.11,0,*72
1498439253.11,59353,22.06,73870.8,6.03,5.11,5.19,0,*79
1498439254.3,59354,22.06,73868.0,6.03,5.19,5.11,0,*7E
1498439255.52,59355,22.06,73866.0,6.01,5.19,5.19,0,*75
1498439256.71,59356,22.06,73866.0,6.03,5.19,5.19,0,*74
1498439257.93,59357,22.06,73870.5,6.01,5.11,5.11,0,*77
1498439259.14,59358,22.06,73870.8,6.01,5.11,5.11,0,*78
1498439260.36,59359,22.06,73868.8,6.01,5.19,5.19,0,*79
1498439261.58,59360,22.06,73872.5,6.01,5.19,5.19,0,*73
1498439262.77,59361,22.06,73870.0,6.03,5.19,5.19,0,*70
1498439263.99,59362,22.06,73870.0,6.01,5.11,5.19,0,*79
1498439265.2,59363,22.06,73870.3,6.01,5.11,5.19,0,*78
1498439266.42,59364,22.06,73870.0,6.01,5.11,5.11,0,*77
1498439267.61,59365,22.06,73864.3,6.03,5.11,5.11,0,*74
1498439268.82,59366,22.06,73868.3,6.01,5.19,5.07,0,*7A
1498439270.04,59367,22.06,73868.0,6.01,5.11,5.11,0,*74
1498439271.25,59368,22.06,73870.8,6.01,5.19,5.11,0,*73
1498439272.47,59369,22.06,73864.5,6.01,5.19,5.19,0,*7A
1498439273.69,59370,22.06,73864.5,6.01,5.19,5.19,0,*72
1498439274.91,59371,22.06,73868.5,6.01,5.19,5.19,0,*73
1498439276.13,59372,22.06,73870.3,6.01,5.19,5.11,0,*78
1498439277.32,59373,22.06,73874.3,6.03,5.19,5.11,0,*7B
1498439278.53,59374,22.06,73870.0,6.01,5.11,5.11,0,*76
1498439279.75,59375,22.06,73868.5,6.01,5.19,5.11,0,*7F
1498439280.97,59376,22.06,73870.8,6.01,5.19,5.11,0,*7C
1498439282.18,59377,22.06,73868.3,6.01,5.11,5.11,0,*75
1498439283.4,59378,22.06,73872.0,6.01,5.19,5.11,0,*72
1498439284.61,59379,22.06,73868.0,6.01,5.11,5.19,0,*73
1498439285.83,59380,22.06,73872.3,6.01,5.19,5.11,0,*75
1498439287.05,59381,22.06,73870.0,6.01,5.19,5.19,0,*7C
1498439288.27,59382,22.06,73870.3,6.01,5.19,5.19,0,*7F
1498439289.49,59383,22.06,73874.0,6.01,5.19,5.19,0,*7E
1498439290.7,59384,22.06,73872.3,6.01,5.19,5.19,0,*79
1498439291.92,59385,22.06,73870.3,6.01,5.23,5.19,0,*71
1498439293.13,59386,22.06,73874.5,6.01,5.23,5.19,0,*72
1498439294.35,59387,22.06,73870.3,6.01,5.19,5.19,0,*7A
1498439295.57,59388,22.06,73868.0,6.01,5.19,5.23,0,*7C
1498439296.79,59389,22.06,73868.8,6.01,5.19,5.11,0,*7C
1498439297.99,59390,22.06,73868.8,6.03,5.19,5.23,0,*77
1498439299.2,59391,22.06,73868.0,6.01,5.23,5.23,0,*7D
1498439300.41,59392,22.06,73866.3,6.01,5.23,5.29,0,*74
1498439301.62,59393,22.06,73868.3,6.01,5.29,5.23,0,*75
1498439302.82,59394,22.06,73864.3,6.01,5.23,5.29,0,*72
1498439304.01,59395,22.06,73866.8,6.03,5.23,5.29,0,*71
1498439305.18,59396,22.06,73862.8,6.03,5.29,5.29,0,*78
1498439306.39,59397,22.06,73866.0,6.01,5.23,5.29,0,*71
1498439307.6,59398,22.06,73864.8,6.01,5.23,5.29,0,*7E
1498439308.8,59399,22.06,73866.0,6.01,5.29,5.29,0,*75
1498439309.98,59400,22.06,73866.3,6.03,5.23,5.29,0,*7A
1498439311.17,59401,22.06,73866.8,6.03,5.29,5.23,0,*7B
1498439312.37,59402,22.06,73868.5,6.01,5.23,5.29,0,*7A
1498439313.57,59403,22.06,73864.5,6.01,5.29,5.29,0,*71
1498439314.77,59404,22.06,73864.8,6.01,5.29,5.29,0,*76
1498439315.95,59405,22.06,73864.5,6.03,5.29,5.29,0,*75
1498439317.15,59406,22.06,73864.5,6.01,5.29,5.29,0,*74
1498439318.34,59407,22.06,73864.3,6.01,5.29,5.29,0,*75
1498439319.54,59408,22.06,73868.0,6.03,5.23,5.23,0,*78
1498439320.75,59409,22.06,73870.0,6.01,5.29,5.23,0,*71
1498439321.97,59410,22.06,73870.5,6.01,5.23,5.23,0,*73
1498439323.15,59411,22.06,73866.8,6.03,5.23,5.29,0,*7A
1498439324.37,59412,22.06,73864.3,6.01,5.23,5.23,0,*71
1498439325.56,59413,22.06,73864.3,6.03,5.23,5.23,0,*72